Погода в Вуктыле

Россия / Республика Коми     63°50′39″N   57°17′59″E
темп.,
°C
ветер,
м/с
пор.,
м/с
влажн.,
%
обл.,
%
осадки,
мм/ч
давл.,
гПа
погр.,
м
14 апреля, ср
ср1400:00+5юз2699100 3.2 1020135
03:00+5зюз38100100 3.2 1021206
06:00+5ююз27100100 0.1 1021169
09:00+5ююз41099100 0.1 1019310
12:00+7ююз51398100 0.4 1017492
15:00+8юз51496100 0.5 1016597
18:00+9ююз5159216 0.1 1013496
21:00+11юз71881100 0.2 1010927
15 апреля, чт
чт1500:00+11зюз71676100 0.1 1008893
03:00+2ссз4998100 4.3 1012528
06:00+2з3991100 5.1 1014877
09:00+4сз5963100 5.4 10151491
12:00+5зсз51049100 0.1 10172294
15:00+4сз6115262 0.1 10181936
18:00+2сз5106272 0.1 10201237
21:00−2с477490 0.1 1025777
16 апреля, пт
пт1600:00−4с36707 0.0 1028732
03:00−4с23655 0.0 1029599
06:00−3ю1159100 0.0 1029511
09:000юз4645100 0.0 1028877
12:00+3юз51053100 0.0 10241461
15:00+1зюз61394100 0.8 10221080
18:00+2зсз61192100 0.4 10211046
21:000ссз5107543 0.7 10221121
17 апреля, сб
сб1700:00−3сз496910 0.1 1024818
03:00−4сз377586 0.1 1024555
06:00−3ссз1268100 0.0 1024567
09:00−1юз2454100 0.0 10211040
12:00−1юз2591100 1.7 1019534
15:00+2сз6165193 2.6 10192496
18:00−1ссз5125643 0.1 10191434
21:00−3ссз5106663 0.1 10211155
18 апреля, вс
вс1800:00−4ссз597258 0.0 10241060
03:00−5с477894 0.1 1027807
06:00−4ссв347198 0.1 1029786
09:00−3с3458100 0.1 10321254
12:00−1с3449100 0.1 10341583
15:00−1ссв3543100 0.1 10351682
18:00−2с24495 0.0 1036127
21:00−3ссв26585 0.0 1037363